View from above orbital plane
|
View from above satellite
|
Ground track
|
The orbit data is extracted from the following two-line orbital elements,
1 25732U 99025C 21104.56505003 -.00000033 00000-0 56294-5 0 9994
2 25732 98.9099 140.8559 0038352 72.7132 42.9340 14.17690700134487
Epoch (UTC): | 14 April 2021 13:33:40 |
Eccentricity: | 0.0038352 |
inclination: | 98.9099° |
perigee height: | 805 km |
apogee height: | 861 km |
right ascension of ascending node: | 140.8559° |
argument of perigee: | 72.7132° |
revolutions per day: | 14.17690700 |
mean anomaly at epoch: | 42.9340° |
orbit number at epoch: | 13448 |
The dashed part of the orbit path shows where the satellite is in the earth's shadow,
|
|